Date String (YYYY-MM-DD hh:mm:ss) UTC,Instrument flags,absolute air pressure of the measurement (hPa),sample flow rate (lpm),inlet stack bypass flow (lpm),air temperature of the measurement (°C),ambient temperature measured by the external sensor (°C),aerosol sample conditioner tube jacket temperature (°C),OPC LED temperature (°C),internal box temperature (°C),relative humidity of the measurement (%),span deviation,mass concentration of particles derived from Lorenz-Mie calculation of OPC scattering (μg/m³),mass concentration of particles derived from Lorenz-Mie calculation of OPC scattering (μg/m³),mass concentration of particles derived from Lorenz-Mie calculation of OPC scattering (μg/m³)
DateTimeUTC,F1_M11,P_M11,Q1_M11,Q2_M11,T1_M11,T2_M11,T3_M11,T4_M11,T5_M11,U1_M11,ZSPAN_M11,X0_M11,X2_M11,X1_M11
2023-06-29 00:00:00,SystemResetWarning,0827.7,4.99,000.00,030.1,027.6,000.0,038.1,030.9,33.8,0001.2,0024.37,0009.85,0007.78
2023-06-29 00:01:00,SystemResetWarning,0827.7,4.99,000.00,030.1,027.7,000.0,038.1,031.0,34.0,0001.2,0021.94,0009.85,0007.79
2023-06-29 00:02:00,SystemResetWarning,0827.7,5.00,000.00,030.1,026.5,000.0,038.0,030.8,34.2,0001.3,0022.41,0009.85,0007.83
2023-06-29 00:03:00,SystemResetWarning,0827.7,5.00,000.00,030.0,025.3,000.0,037.9,030.6,34.3,0000.6,0023.47,0009.85,0007.84
2023-06-29 00:04:00,SystemResetWarning,0827.7,5.00,000.00,030.0,025.0,000.0,037.9,030.5,35.1,0001.2,0023.49,0009.84,0007.86
2023-06-29 00:05:00,SystemResetWarning,0827.7,5.02,000.00,029.9,025.3,000.0,037.9,030.4,35.3,0000.9,0023.87,0009.79,0007.88
2023-06-29 00:06:00,SystemResetWarning,0827.7,4.99,000.00,030.1,025.8,000.0,038.0,030.6,35.2,0000.5,0023.86,0009.82,0007.88
2023-06-29 00:07:00,SystemResetWarning,0827.7,5.00,000.00,030.5,026.2,000.0,038.0,030.9,35.3,-000.2,0024.44,0009.92,0007.88
2023-06-29 00:08:00,SystemResetWarning,0827.8,5.00,000.00,030.8,026.7,000.0,038.1,031.1,34.3,-000.5,0024.81,0009.94,0007.87
2023-06-29 00:09:00,SystemResetWarning,0827.8,4.98,000.00,031.1,027.1,000.0,038.1,031.2,34.9,-000.6,0024.79,0009.85,0007.85
2023-06-29 00:10:00,SystemResetWarning,0827.8,5.04,000.00,031.3,027.4,000.0,038.3,031.3,33.3,-001.2,0024.64,0009.95,0007.86
2023-06-29 00:11:00,SystemResetWarning,0827.8,4.97,000.00,031.5,027.7,000.0,038.4,031.4,31.1,-001.3,0025.06,0009.96,0007.84
2023-06-29 00:12:00,SystemResetWarning,0827.9,5.00,000.00,031.6,027.5,000.0,038.5,031.4,30.0,-000.8,0025.86,0009.93,0007.79
2023-06-29 00:13:00,SystemResetWarning,0827.8,5.00,000.00,031.7,026.1,000.0,038.5,031.2,30.4,-000.2,0025.04,0009.87,0007.71
2023-06-29 00:14:00,SystemResetWarning,0827.8,5.00,000.00,031.7,025.2,000.0,038.5,031.0,32.3,0000.5,0023.73,0009.84,0007.65
2023-06-29 00:15:00,SystemResetWarning,0827.8,5.00,000.00,031.6,025.3,000.0,038.6,030.8,32.8,0000.5,0023.67,0009.81,0007.61
2023-06-29 00:16:00,SystemResetWarning,0827.9,5.02,000.00,031.4,025.6,000.0,038.7,030.8,32.3,0000.9,0023.56,0009.79,0007.57
2023-06-29 00:17:00,SystemResetWarning,0827.8,5.00,000.00,031.4,026.1,000.0,038.8,030.9,30.4,0001.2,0024.13,0009.77,0007.56
2023-06-29 00:18:00,SystemResetWarning,0827.8,4.99,000.00,031.3,026.5,000.0,038.9,031.0,29.1,0001.3,0024.20,0009.64,0007.53
2023-06-29 00:19:00,SystemResetWarning,0827.7,5.00,000.00,031.3,026.9,000.0,038.9,031.1,29.4,0001.8,0024.25,0009.63,0007.50
2023-06-29 00:20:00,SystemResetWarning,0827.8,5.00,000.00,031.3,027.3,000.0,039.0,031.2,29.0,0001.7,0024.20,0009.66,0007.47
2023-06-29 00:21:00,SystemResetWarning,0827.8,4.99,000.00,031.3,027.6,000.0,039.0,031.3,29.4,0001.9,0024.43,0009.53,0007.43
2023-06-29 00:22:00,SystemResetWarning,0827.7,5.00,000.00,031.3,027.8,000.0,039.1,031.3,30.0,0001.8,0025.25,0009.54,0007.43
2023-06-29 00:23:00,SystemResetWarning,0827.7,4.99,000.00,031.3,027.1,000.0,039.0,031.3,29.8,0001.7,0025.49,0009.60,0007.45
2023-06-29 00:24:00,SystemResetWarning,0827.7,5.00,000.00,031.3,025.7,000.0,038.9,031.1,30.2,0002.0,0025.96,0009.70,0007.49
2023-06-29 00:25:00,SystemResetWarning,0827.7,5.00,000.00,031.2,025.2,000.0,038.8,030.9,30.5,0002.1,0026.73,0009.79,0007.54
2023-06-29 00:26:00,SystemResetWarning,0827.7,5.01,000.00,031.0,025.3,000.0,038.8,030.7,31.3,0002.2,0026.49,0009.83,0007.59
2023-06-29 00:27:00,SystemResetWarning,0827.7,5.01,000.00,030.9,025.7,000.0,038.9,030.7,31.1,0002.2,0026.10,0009.85,0007.63
2023-06-29 00:28:00,SystemResetWarning,0827.7,4.99,000.00,030.8,026.2,000.0,038.9,030.9,31.3,0002.1,0025.52,0009.85,0007.66
2023-06-29 00:29:00,SystemResetWarning,0827.7,5.00,000.00,030.8,026.6,000.0,038.9,031.0,32.2,0002.0,0024.00,0009.94,0007.70
2023-06-29 00:30:00,SystemResetWarning,0827.7,5.00,000.00,030.7,027.1,000.0,038.9,031.1,33.4,0001.6,0023.73,0009.94,0007.75
2023-06-29 00:31:00,SystemResetWarning,0827.8,4.99,000.00,030.7,027.4,000.0,038.9,031.2,33.0,0001.8,0023.18,0009.93,0007.82
2023-06-29 00:32:00,SystemResetWarning,0827.8,5.01,000.00,030.7,027.7,000.0,038.9,031.2,33.2,0001.4,0023.39,0010.01,0007.90
2023-06-29 00:33:00,SystemResetWarning,0827.8,5.00,000.00,030.7,027.2,000.0,038.8,031.2,33.9,0001.4,0023.20,0010.05,0007.98
2023-06-29 00:34:00,SystemResetWarning,0827.7,4.99,000.00,030.7,025.8,000.0,038.7,031.0,34.2,0001.1,0023.43,0010.14,0008.05
2023-06-29 00:35:00,SystemResetWarning,0827.8,5.01,000.00,030.6,025.1,000.0,038.6,030.9,34.1,0000.4,0023.70,0010.21,0008.12
2023-06-29 00:36:00,SystemResetWarning,0827.8,5.01,000.00,030.5,025.2,000.0,038.5,030.6,32.8,-000.5,0024.02,0010.26,0008.15
2023-06-29 00:37:00,SystemResetWarning,0827.7,5.01,000.00,030.3,025.6,000.0,038.6,030.6,32.2,-000.8,0024.58,0010.34,0008.19
2023-06-29 00:38:00,SystemResetWarning,0827.8,4.99,000.00,030.3,026.0,000.0,038.6,030.7,33.4,-000.9,0026.15,0010.41,0008.22
2023-06-29 00:39:00,SystemResetWarning,0827.8,5.00,000.00,030.2,026.5,000.0,038.5,030.8,33.8,-000.8,0026.79,0010.48,0008.25
2023-06-29 00:40:00,SystemResetWarning,0827.8,4.99,000.00,030.2,026.9,000.0,038.5,030.9,34.6,-000.5,0028.22,0010.51,0008.29
2023-06-29 00:41:00,SystemResetWarning,0827.8,5.00,000.00,030.2,027.2,000.0,038.5,031.0,34.3,-000.0,0028.60,0010.62,0008.31
2023-06-29 00:42:00,SystemResetWarning,0827.8,5.01,000.00,030.3,027.5,000.0,038.5,031.1,33.7,-000.1,0029.11,0010.64,0008.29
2023-06-29 00:43:00,SystemResetWarning,0827.9,4.99,000.00,030.4,027.8,000.0,038.5,031.2,34.2,0000.5,0028.13,0010.59,0008.29
2023-06-29 00:44:00,SystemResetWarning,0827.9,4.99,000.00,030.4,027.5,000.0,038.5,031.2,34.5,0000.6,0028.63,0010.63,0008.29
2023-06-29 00:45:00,SystemResetWarning,0827.8,5.00,000.00,030.4,026.0,000.0,038.4,031.0,35.5,0000.1,0028.42,0010.63,0008.29
2023-06-29 00:46:00,SystemResetWarning,0827.8,5.04,000.00,030.5,025.2,000.0,038.3,030.9,34.2,0000.6,0028.41,0010.58,0008.25
2023-06-29 00:47:00,SystemResetWarning,0827.8,4.97,000.00,030.5,025.2,000.0,038.3,030.8,34.5,0000.7,0028.55,0010.49,0008.21
2023-06-29 00:48:00,SystemResetWarning,0827.8,5.02,000.00,030.5,025.5,000.0,038.3,030.7,33.9,0000.1,0029.85,0010.43,0008.17
2023-06-29 00:49:00,SystemResetWarning,0827.8,5.00,000.00,030.5,026.0,000.0,038.4,030.8,34.1,0000.6,0028.24,0010.29,0008.12
2023-06-29 00:50:00,SystemResetWarning,0827.8,4.97,000.00,030.5,026.4,000.0,038.4,030.8,35.0,0000.7,0028.09,0010.19,0008.07
2023-06-29 00:51:00,SystemResetWarning,0827.8,5.03,000.00,030.6,026.8,000.0,038.5,031.0,35.4,-000.3,0026.63,0010.13,0008.04
2023-06-29 00:52:00,SystemResetWarning,0827.8,4.97,000.00,030.9,027.2,000.0,038.5,031.2,35.9,-000.6,0026.49,0010.01,0008.00
2023-06-29 00:53:00,SystemResetWarning,0827.8,5.02,000.00,031.2,027.5,000.0,038.6,031.4,35.1,-000.5,0026.40,0010.03,0007.99
2023-06-29 00:54:00,SystemResetWarning,0827.8,4.98,000.00,031.5,027.8,000.0,038.6,031.5,33.7,-000.7,0027.12,0010.04,0007.94
2023-06-29 00:55:00,SystemResetWarning,0827.8,4.99,000.00,031.7,027.7,000.0,038.7,031.6,32.6,-000.8,0026.12,0009.98,0007.88
2023-06-29 00:56:00,SystemResetWarning,0827.8,4.99,000.00,031.8,026.4,000.0,038.7,031.5,32.1,-000.2,0025.73,0009.90,0007.82
2023-06-29 00:57:00,SystemResetWarning,0827.8,5.01,000.00,031.8,025.3,000.0,038.7,031.3,31.5,-000.7,0025.20,0009.83,0007.80
2023-06-29 00:58:00,SystemResetWarning,0827.8,5.01,000.00,031.8,025.3,000.0,038.8,031.1,31.3,-000.4,0024.34,0009.86,0007.79
2023-06-29 00:59:00,SystemResetWarning,0827.8,5.00,000.00,031.6,025.6,000.0,038.9,030.9,30.9,0000.3,0023.12,0009.84,0007.77
